SCP
-0 0 0 0 0 0 0 0 0 0 0 0 0 0 0 0 0 0 0 0 1 1 1 1 1 1 1 1 1 1 1 1 1 1 1 1 1 2 2 0 0 0 0
-0 -0 0 0 0 0 0 0 0 0 0 0 0 0 0 0 0 0 0 0 1 0 1 2 1 1 0 1 1 1 1 1 0 1 1 1 0 0 0 0 0 0 0
-0 -0 0 0 0 0 0 0 0 0 0 0 0 0 0 0 0 0 0 0 1 1 1 1 1 1 1 1 1 1 1 1 0 0 0 0 0 0 0 0 0 0 0
-0 -0 0 0 0 0 0 0 0 0 0 0 0 0 0 0 0 0 0 0 0 1 1 1 1 1 1 1 1 1 1 1 0 0 0 0 0 0 0 0 0 0 0
0 0 0 0 1 1 1 0 0 0 1 0 0 0 0 0 0 0 0 0 0 0 0 1 1 1 1 1 1 1 1 1 1 0 0 0 0 0 0 0 0 0 0
0 0 1 1 1 1 1 1 0 1 0 0 0 0 0 0 0 0 0 0 0 0 0 1 1 0 0 0 1 1 1 1 1 1 0 0 0 0 1 0 0 0 0
1 1 1 1 1 1 1 0 0 0 0 0 0 0 0 0 0 0 0 0 0 0 0 0 0 0 0 1 1 1 1 1 1 1 1 1 1 1 1 0 0 0 0
1 1 1 1 1 1 1 1 0 0 0 0 0 0 0 0 0 0 0 0 0 0 0 0 -0 0 1 1 1 1 2 1 1 1 1 1 1 1 1 1 0 0 0
1 1 1 1 1 1 1 1 0 0 0 0 0 0 0 0 0 0 0 0 0 0 0 0 0 0 1 1 1 1 1 2 1 1 1 2 1 1 1 1 0 0 0
1 1 1 1 1 1 0 0 0 0 0 0 0 0 0 0 0 0 0 0 0 0 0 0 0 0 0 0 0 0 1 1 1 1 1 1 1 1 1 1 0 0 0
1 1 1 1 0 0 0 0 0 0 0 0 0 0 0 0 0 0 0 0 0 0 0 0 0 0 0 0 0 0 0 0 1 1 1 1 2 1 1 0 0 0 0
1 1 0 0 0 0 0 0 0 0 0 0 0 0 0 0 0 0 0 0 0 0 0 0 0 0 0 0 0 0 0 0 0 0 1 1 1 1 1 0 0 0 0
0 0 0 0 0 0 0 0 0 0 0 0 0 0 0 0 0 0 0 0 0 0 0 0 0 0 0 0 0 0 0 0 0 0 0 0 0 0 0 0 0 0 0
0 0 0 0 0 0 0 0 0 0 0 0 0 0 0 0 0 0 0 0 0 0 0 0 0 0 0 0 0 0 0 0 0 0 0 0 0 0 0 0 0 0 0
0 0 0 0 0 0 0 0 0 0 0 0 0 0 0 0 0 0 0 0 0 0 0 0 0 0 0 0 0 0 0 0 -0 0 0 0 0 0 0 0 0 0 0
0 0 0 0 0 0 0 0 0 0 0 0 0 0 0 0 0 0 0 0 0 0 0 0 0 0 0 0 0 0 0 0 0 0 0 0 0 0 0 0 0 0 0
0 0 0 0 0 0 0 0 0 0 0 0 0 0 0 0 0 0 0 0 0 0 0 0 0 0 0 0 0 0 0 0 0 0 0 0 0 0 0 0 0 0 0
0 0 0 0 0 0 0 0 0 0 0 0 0 0 0 0 0 0 0 0 0 0 0 0 0 0 0 0 0 0 0 0 0 0 0 0 0 0 0 0 0 0 0
0 0 0 0 0 0 0 0 0 0 0 0 0 0 0 0 0 0 0 0 0 0 0 0 0 0 0 0 0 0 0 0 0 0 0 0 0 0 0 0 0 0 0
0 0 0 0 0 0 0 0 0 0 0 0 0 0 0 0 0 0 0 0 0 0 0 0 0 0 0 0 0 0 0 0 0 0 0 0 0 0 0 0 0 0 0
0 0 0 0 0 0 0 0 0 0 0 0 0 0 0 0 0 0 0 0 0 0 0 0 0 0 0 0 0 0 0 0 0 0 0 0 0 0 0 0 0 0 0
0 0 0 0 0 0 0 0 0 0 0 0 0 0 0 0 0 0 0 0 0 0 0 0 0 0 0 0 0 0 0 0 0 0 0 0 0 0 0 0 0 0 0
0 0 0 0 0 0 0 0 0 0 0 0 0 0 0 0 0 0 0 0 0 0 0 0 0 0 0 0 0 0 0 0 0 0 0 0 0 0 0 0 0 0 0
0 0 0 0 0 0 0 0 0 0 0 -0 0 0 0 0 0 0 0 0 0 0 0 0 0 0 0 0 0 0 0 0 0 0 0 0 0 0 0 0 0 0 0
0 0 0 0 0 0 0 0 0 0 0 0 0 0 0 0 0 0 0 0 0 0 0 0 0 0 0 0 0 0 0 0 0 0 0 -0 0 0 0 0 0 0 0
0 0 0 0 0 0 0 0 0 0 0 0 0 0 -0 0 -0 -0 -0 0 0 0 0 0 0 0 0 0 0 0 0 0 0 0 0 0 0 0 0 0 0 -0 -0
Wind_Speed_500mb
22 15 14 11 3 2 1 7 9 11 13 15 16 20 23 26 31 35 39 40 41 36 34 34 36 36 37 37 39 38 39 40 41 46 59 48 31 27 40 46 46 43 46
19 15 9 8 6 7 5 7 10 14 18 21 25 28 28 31 36 44 44 42 40 32 26 30 48 50 46 43 47 43 58 58 61 53 44 40 36 43 45 44 49 47 50
21 14 8 2 9 9 14 18 22 30 31 37 46 43 44 49 55 47 47 46 38 33 49 49 43 48 51 60 63 71 57 54 50 46 38 40 46 46 45 50 52 54 59
24 18 18 14 18 19 24 27 27 30 34 44 40 38 43 48 48 52 53 51 52 48 54 52 54 58 57 57 52 40 47 50 42 46 45 47 49 51 52 52 55 59 62
28 21 22 27 28 29 24 25 29 41 47 46 46 48 52 59 62 49 49 54 55 51 45 45 38 35 32 29 31 34 39 36 37 41 44 47 50 53 56 57 59 63 62
31 26 29 28 32 34 41 41 38 37 42 46 49 55 58 52 36 33 27 28 40 36 33 27 24 29 28 30 36 34 35 38 39 41 43 47 53 53 56 61 63 63 63
39 33 26 30 34 40 46 47 46 47 48 50 56 52 46 36 32 35 30 26 18 11 17 25 32 39 40 42 41 46 45 47 47 48 49 53 56 61 64 64 64 65 66
42 36 34 36 38 40 42 42 41 44 43 44 34 28 22 44 25 18 27 22 24 26 34 35 40 46 52 51 48 51 55 56 58 58 59 62 64 68 72 70 68 69 69
34 34 34 36 32 29 32 36 37 33 30 32 23 19 15 16 46 34 29 26 23 20 28 36 36 45 49 53 53 51 59 62 65 68 69 67 69 71 75 75 71 70 73
29 30 29 30 29 27 25 25 25 26 27 21 24 33 32 36 26 38 42 27 40 43 34 35 36 36 33 39 42 48 50 50 63 71 70 73 75 74 74 76 73 66 72
29 28 28 26 23 23 23 23 21 19 20 27 30 36 36 33 40 43 59 59 53 50 48 50 52 55 55 51 53 60 65 69 63 60 67 75 76 77 72 68 65 70 71
28 23 24 23 23 23 20 15 16 19 23 28 31 33 33 33 33 28 39 57 62 69 65 62 65 66 67 68 71 74 72 69 68 65 61 59 61 65 59 62 69 72 70
19 14 19 22 20 18 18 18 19 22 26 29 29 28 29 30 34 39 43 49 56 72 75 74 73 72 70 68 65 63 63 59 55 55 56 55 55 58 64 71 78 79 77
13 15 14 15 17 20 22 22 22 25 30 32 34 36 37 33 36 39 44 51 68 65 71 73 77 71 65 67 69 70 71 61 68 71 72 73 71 67 66 69 74 68 60
15 15 17 16 20 23 23 22 22 24 27 31 35 37 40 44 46 49 53 56 56 59 64 60 57 61 71 70 70 72 79 85 88 89 83 73 70 62 61 70 68 59 56
14 11 11 14 15 18 23 26 29 32 35 37 41 45 48 50 53 56 57 55 53 59 70 64 73 71 71 74 74 69 69 70 77 78 69 59 53 52 53 55 54 53 53
8 6 9 12 17 24 28 32 36 39 42 45 47 49 51 51 48 45 43 44 47 51 69 79 78 80 79 78 79 77 77 75 74 66 60 59 51 51 51 52 50 52 53
9 9 10 15 19 23 28 33 38 43 45 45 44 41 40 41 40 40 45 51 56 57 65 79 81 85 84 84 86 85 78 69 69 69 65 62 60 54 54 53 49 43 44
4 7 12 16 21 27 33 39 42 38 34 34 35 36 36 39 44 50 54 60 63 66 69 78 89 87 87 72 61 61 61 54 50 51 57 59 58 60 58 54 51 50 54
7 11 15 20 25 32 37 30 26 24 25 28 30 32 36 40 45 49 57 64 70 74 75 80 85 78 66 62 67 63 65 59 56 54 53 51 61 70 66 68 70 66 55
6 12 17 22 27 28 19 20 23 24 27 29 32 36 40 48 51 54 64 67 61 58 56 55 61 66 72 74 68 64 64 58 55 60 62 49 41 39 48 45 45 50 50
12 12 14 16 19 16 21 28 30 31 33 34 39 43 50 56 59 57 50 50 49 52 51 53 61 64 65 69 66 63 64 58 54 60 58 67 49 49 43 46 45 43 48
13 13 16 19 24 24 28 31 32 33 37 42 45 51 50 53 53 57 58 58 59 48 42 44 52 56 59 60 57 62 60 51 53 59 57 60 41 49 44 44 33 32 36
16 19 20 23 21 22 26 29 32 38 42 46 52 53 53 56 60 63 67 63 62 58 51 48 39 43 43 44 51 60 51 57 52 55 36 37 36 32 18 10 15 21 19
18 22 22 19 19 20 25 27 32 38 43 49 53 59 54 54 53 56 61 72 64 52 38 32 33 39 38 34 46 55 50 45 47 43 26 24 33 36 15 3 3 11 20
16 20 19 19 18 20 29 24 25 34 44 49 52 52 52 49 46 52 70 68 67 59 47 40 36 36 33 41 42 50 41 35 30 22 16 26 34 31 12 11 6 16 27
Wind_Direction_500mb
190 167 151 165 151 301 345 338 327 307 298 292 285 277 286 284 288 291 292 288 284 286 277 266 268 272 283 294 292 283 278 276 272 277 282 273 266 264 272 288 268 278 287
201 184 156 224 240 264 289 305 298 295 292 300 296 283 273 273 282 285 287 284 278 282 273 274 286 285 289 290 287 273 276 262 276 275 265 265 254 283 281 272 275 284 285
208 192 164 237 266 283 285 283 282 287 293 293 293 285 281 283 281 285 280 278 269 264 274 291 280 281 288 294 291 285 282 282 276 265 261 262 272 280 277 278 282 284 285
196 203 196 224 250 258 272 281 280 278 275 281 280 278 276 276 273 277 272 275 276 275 278 281 278 281 287 287 287 283 276 272 263 266 270 268 272 277 277 279 283 288 291
199 213 212 219 238 246 261 253 259 269 274 285 288 289 292 293 289 293 286 281 279 276 281 284 273 275 275 288 301 288 272 260 259 264 269 271 274 278 282 283 288 292 294
210 213 217 233 248 258 257 255 261 269 281 289 293 293 291 294 291 295 293 302 282 265 280 280 265 263 271 273 273 280 273 268 263 267 274 280 283 284 288 289 294 297 298
209 217 234 245 256 260 255 259 266 271 281 292 295 296 298 297 298 294 283 323 321 281 275 286 279 279 272 267 272 270 273 266 269 273 271 282 286 285 291 288 292 294 294
214 222 231 256 266 261 263 270 280 285 292 294 304 305 316 312 302 285 317 294 303 306 291 268 267 277 269 268 273 275 272 278 273 276 280 284 282 283 284 284 288 285 287
219 229 248 256 256 270 277 281 288 292 295 302 295 293 305 280 305 304 307 282 293 276 273 277 287 281 272 275 280 280 287 280 280 282 284 279 276 280 281 277 278 279 282
229 233 235 250 270 281 285 288 287 295 295 296 292 294 284 283 291 302 301 289 287 288 283 284 290 297 299 294 292 285 282 281 279 280 279 277 274 275 275 271 275 275 282
204 223 245 258 273 285 293 287 290 292 291 286 288 287 289 290 281 273 286 295 289 284 287 286 284 283 285 287 285 285 287 291 287 277 272 272 272 271 266 269 273 282 289
211 226 242 256 271 273 277 276 273 274 278 280 282 286 287 292 291 297 296 295 297 292 289 286 284 284 283 285 286 290 290 289 288 287 283 277 269 264 267 276 280 286 287
201 225 244 249 264 271 277 274 277 281 281 285 293 294 298 306 303 299 298 297 298 293 292 286 288 291 293 293 289 288 288 286 281 281 282 281 279 277 278 282 288 291 291
213 230 231 238 252 262 269 278 286 286 287 291 292 292 296 295 294 295 299 305 304 301 299 299 300 301 298 293 289 286 285 281 286 292 291 292 290 289 286 286 287 285 279
215 194 201 219 247 261 273 283 290 293 294 292 292 293 297 298 299 299 299 300 301 306 300 303 301 299 298 297 292 289 287 286 287 291 293 292 291 287 287 282 280 277 275
194 212 240 249 259 279 293 303 310 304 302 302 303 304 305 305 304 302 299 297 296 298 301 300 307 310 310 307 305 302 299 294 286 283 282 283 283 288 286 283 268 268 269
203 238 251 274 288 296 302 304 305 305 309 311 312 312 311 311 311 312 308 304 301 300 302 304 305 307 307 306 306 306 306 303 298 294 283 282 279 283 285 279 275 266 264
192 228 277 290 291 298 305 311 314 317 318 319 319 318 317 314 311 313 314 315 314 310 308 307 307 309 309 308 308 307 307 304 300 296 293 291 282 281 279 273 270 272 268
226 281 293 300 306 312 317 319 322 325 328 327 323 324 325 324 323 322 318 313 311 307 304 303 303 302 304 312 312 313 315 309 307 301 290 284 280 275 271 264 263 270 270
313 307 307 308 313 317 322 328 336 340 338 338 335 332 339 334 328 321 315 312 308 305 305 305 306 311 316 315 312 317 315 309 309 309 299 290 278 265 263 263 268 272 271
308 310 307 315 321 328 352 8 7 359 352 350 349 347 345 343 330 317 316 320 321 321 318 317 317 318 319 316 314 314 311 314 312 312 316 318 311 287 277 277 270 268 265
332 323 321 338 340 22 45 25 19 15 7 1 355 351 348 339 333 329 331 340 336 327 322 322 317 314 320 321 321 315 311 313 314 321 317 310 299 289 284 280 273 273 274
33 38 38 29 35 40 41 33 31 24 19 11 358 352 346 343 345 351 350 352 350 346 338 334 326 330 329 336 326 324 321 310 311 313 312 306 303 294 287 278 269 280 273
53 64 55 52 43 47 41 36 39 32 26 20 11 359 350 349 354 358 354 352 350 341 337 335 337 338 337 345 346 334 324 317 309 317 324 302 337 332 320 285 257 267 264
80 81 73 62 56 46 54 50 43 38 36 26 15 5 4 3 359 0 357 0 1 0 349 359 357 347 343 339 336 331 335 328 316 326 333 332 352 342 353 312 211 267 293
87 83 80 66 59 52 54 50 43 34 24 20 18 13 17 14 14 12 12 10 14 10 5 4 355 0 351 349 339 347 338 337 331 332 328 348 347 14 19 41 340 306 312
Wind_Speed_850mb
22 15 14 11 3 2 1 7 9 11 13 15 16 20 23 26 31 35 39 40 41 36 34 34 36 36 37 37 39 38 39 40 41 46 59 48 31 27 40 46 46 43 46
19 15 9 8 6 7 5 7 10 14 18 21 25 28 28 31 36 44 44 42 40 32 26 30 48 50 46 43 47 43 58 58 61 53 44 40 36 43 45 44 49 47 50
21 14 8 2 9 9 14 18 22 30 31 37 46 43 44 49 55 47 47 46 38 33 49 49 43 48 51 60 63 71 57 54 50 46 38 40 46 46 45 50 52 54 59
24 18 18 14 18 19 24 27 27 30 34 44 40 38 43 48 48 52 53 51 52 48 54 52 54 58 57 57 52 40 47 50 42 46 45 47 49 51 52 52 55 59 62
28 21 22 27 28 29 24 25 29 41 47 46 46 48 52 59 62 49 49 54 55 51 45 45 38 35 32 29 31 34 39 36 37 41 44 47 50 53 56 57 59 63 62
31 26 29 28 32 34 41 41 38 37 42 46 49 55 58 52 36 33 27 28 40 36 33 27 24 29 28 30 36 34 35 38 39 41 43 47 53 53 56 61 63 63 63
39 33 26 30 34 40 46 47 46 47 48 50 56 52 46 36 32 35 30 26 18 11 17 25 32 39 40 42 41 46 45 47 47 48 49 53 56 61 64 64 64 65 66
42 36 34 36 38 40 42 42 41 44 43 44 34 28 22 44 25 18 27 22 24 26 34 35 40 46 52 51 48 51 55 56 58 58 59 62 64 68 72 70 68 69 69
34 34 34 36 32 29 32 36 37 33 30 32 23 19 15 16 46 34 29 26 23 20 28 36 36 45 49 53 53 51 59 62 65 68 69 67 69 71 75 75 71 70 73
29 30 29 30 29 27 25 25 25 26 27 21 24 33 32 36 26 38 42 27 40 43 34 35 36 36 33 39 42 48 50 50 63 71 70 73 75 74 74 76 73 66 72
29 28 28 26 23 23 23 23 21 19 20 27 30 36 36 33 40 43 59 59 53 50 48 50 52 55 55 51 53 60 65 69 63 60 67 75 76 77 72 68 65 70 71
28 23 24 23 23 23 20 15 16 19 23 28 31 33 33 33 33 28 39 57 62 69 65 62 65 66 67 68 71 74 72 69 68 65 61 59 61 65 59 62 69 72 70
19 14 19 22 20 18 18 18 19 22 26 29 29 28 29 30 34 39 43 49 56 72 75 74 73 72 70 68 65 63 63 59 55 55 56 55 55 58 64 71 78 79 77
13 15 14 15 17 20 22 22 22 25 30 32 34 36 37 33 36 39 44 51 68 65 71 73 77 71 65 67 69 70 71 61 68 71 72 73 71 67 66 69 74 68 60
15 15 17 16 20 23 23 22 22 24 27 31 35 37 40 44 46 49 53 56 56 59 64 60 57 61 71 70 70 72 79 85 88 89 83 73 70 62 61 70 68 59 56
14 11 11 14 15 18 23 26 29 32 35 37 41 45 48 50 53 56 57 55 53 59 70 64 73 71 71 74 74 69 69 70 77 78 69 59 53 52 53 55 54 53 53
8 6 9 12 17 24 28 32 36 39 42 45 47 49 51 51 48 45 43 44 47 51 69 79 78 80 79 78 79 77 77 75 74 66 60 59 51 51 51 52 50 52 53
9 9 10 15 19 23 28 33 38 43 45 45 44 41 40 41 40 40 45 51 56 57 65 79 81 85 84 84 86 85 78 69 69 69 65 62 60 54 54 53 49 43 44
4 7 12 16 21 27 33 39 42 38 34 34 35 36 36 39 44 50 54 60 63 66 69 78 89 87 87 72 61 61 61 54 50 51 57 59 58 60 58 54 51 50 54
7 11 15 20 25 32 37 30 26 24 25 28 30 32 36 40 45 49 57 64 70 74 75 80 85 78 66 62 67 63 65 59 56 54 53 51 61 70 66 68 70 66 55
6 12 17 22 27 28 19 20 23 24 27 29 32 36 40 48 51 54 64 67 61 58 56 55 61 66 72 74 68 64 64 58 55 60 62 49 41 39 48 45 45 50 50
12 12 14 16 19 16 21 28 30 31 33 34 39 43 50 56 59 57 50 50 49 52 51 53 61 64 65 69 66 63 64 58 54 60 58 67 49 49 43 46 45 43 48
13 13 16 19 24 24 28 31 32 33 37 42 45 51 50 53 53 57 58 58 59 48 42 44 52 56 59 60 57 62 60 51 53 59 57 60 41 49 44 44 33 32 36
16 19 20 23 21 22 26 29 32 38 42 46 52 53 53 56 60 63 67 63 62 58 51 48 39 43 43 44 51 60 51 57 52 55 36 37 36 32 18 10 15 21 19
18 22 22 19 19 20 25 27 32 38 43 49 53 59 54 54 53 56 61 72 64 52 38 32 33 39 38 34 46 55 50 45 47 43 26 24 33 36 15 3 3 11 20
16 20 19 19 18 20 29 24 25 34 44 49 52 52 52 49 46 52 70 68 67 59 47 40 36 36 33 41 42 50 41 35 30 22 16 26 34 31 12 11 6 16 27
Wind_Direction_850mb
190 167 151 165 151 301 345 338 327 307 298 292 285 277 286 284 288 291 292 288 284 286 277 266 268 272 283 294 292 283 278 276 272 277 282 273 266 264 272 288 268 278 287
201 184 156 224 240 264 289 305 298 295 292 300 296 283 273 273 282 285 287 284 278 282 273 274 286 285 289 290 287 273 276 262 276 275 265 265 254 283 281 272 275 284 285
208 192 164 237 266 283 285 283 282 287 293 293 293 285 281 283 281 285 280 278 269 264 274 291 280 281 288 294 291 285 282 282 276 265 261 262 272 280 277 278 282 284 285
196 203 196 224 250 258 272 281 280 278 275 281 280 278 276 276 273 277 272 275 276 275 278 281 278 281 287 287 287 283 276 272 263 266 270 268 272 277 277 279 283 288 291
199 213 212 219 238 246 261 253 259 269 274 285 288 289 292 293 289 293 286 281 279 276 281 284 273 275 275 288 301 288 272 260 259 264 269 271 274 278 282 283 288 292 294
210 213 217 233 248 258 257 255 261 269 281 289 293 293 291 294 291 295 293 302 282 265 280 280 265 263 271 273 273 280 273 268 263 267 274 280 283 284 288 289 294 297 298
209 217 234 245 256 260 255 259 266 271 281 292 295 296 298 297 298 294 283 323 321 281 275 286 279 279 272 267 272 270 273 266 269 273 271 282 286 285 291 288 292 294 294
214 222 231 256 266 261 263 270 280 285 292 294 304 305 316 312 302 285 317 294 303 306 291 268 267 277 269 268 273 275 272 278 273 276 280 284 282 283 284 284 288 285 287
219 229 248 256 256 270 277 281 288 292 295 302 295 293 305 280 305 304 307 282 293 276 273 277 287 281 272 275 280 280 287 280 280 282 284 279 276 280 281 277 278 279 282
229 233 235 250 270 281 285 288 287 295 295 296 292 294 284 283 291 302 301 289 287 288 283 284 290 297 299 294 292 285 282 281 279 280 279 277 274 275 275 271 275 275 282
204 223 245 258 273 285 293 287 290 292 291 286 288 287 289 290 281 273 286 295 289 284 287 286 284 283 285 287 285 285 287 291 287 277 272 272 272 271 266 269 273 282 289
211 226 242 256 271 273 277 276 273 274 278 280 282 286 287 292 291 297 296 295 297 292 289 286 284 284 283 285 286 290 290 289 288 287 283 277 269 264 267 276 280 286 287
201 225 244 249 264 271 277 274 277 281 281 285 293 294 298 306 303 299 298 297 298 293 292 286 288 291 293 293 289 288 288 286 281 281 282 281 279 277 278 282 288 291 291
213 230 231 238 252 262 269 278 286 286 287 291 292 292 296 295 294 295 299 305 304 301 299 299 300 301 298 293 289 286 285 281 286 292 291 292 290 289 286 286 287 285 279
215 194 201 219 247 261 273 283 290 293 294 292 292 293 297 298 299 299 299 300 301 306 300 303 301 299 298 297 292 289 287 286 287 291 293 292 291 287 287 282 280 277 275
194 212 240 249 259 279 293 303 310 304 302 302 303 304 305 305 304 302 299 297 296 298 301 300 307 310 310 307 305 302 299 294 286 283 282 283 283 288 286 283 268 268 269
203 238 251 274 288 296 302 304 305 305 309 311 312 312 311 311 311 312 308 304 301 300 302 304 305 307 307 306 306 306 306 303 298 294 283 282 279 283 285 279 275 266 264
192 228 277 290 291 298 305 311 314 317 318 319 319 318 317 314 311 313 314 315 314 310 308 307 307 309 309 308 308 307 307 304 300 296 293 291 282 281 279 273 270 272 268
226 281 293 300 306 312 317 319 322 325 328 327 323 324 325 324 323 322 318 313 311 307 304 303 303 302 304 312 312 313 315 309 307 301 290 284 280 275 271 264 263 270 270
313 307 307 308 313 317 322 328 336 340 338 338 335 332 339 334 328 321 315 312 308 305 305 305 306 311 316 315 312 317 315 309 309 309 299 290 278 265 263 263 268 272 271
308 310 307 315 321 328 352 8 7 359 352 350 349 347 345 343 330 317 316 320 321 321 318 317 317 318 319 316 314 314 311 314 312 312 316 318 311 287 277 277 270 268 265
332 323 321 338 340 22 45 25 19 15 7 1 355 351 348 339 333 329 331 340 336 327 322 322 317 314 320 321 321 315 311 313 314 321 317 310 299 289 284 280 273 273 274
33 38 38 29 35 40 41 33 31 24 19 11 358 352 346 343 345 351 350 352 350 346 338 334 326 330 329 336 326 324 321 310 311 313 312 306 303 294 287 278 269 280 273
53 64 55 52 43 47 41 36 39 32 26 20 11 359 350 349 354 358 354 352 350 341 337 335 337 338 337 345 346 334 324 317 309 317 324 302 337 332 320 285 257 267 264
80 81 73 62 56 46 54 50 43 38 36 26 15 5 4 3 359 0 357 0 1 0 349 359 357 347 343 339 336 331 335 328 316 326 333 332 352 342 353 312 211 267 293
87 83 80 66 59 52 54 50 43 34 24 20 18 13 17 14 14 12 12 10 14 10 5 4 355 0 351 349 339 347 338 337 331 332 328 348 347 14 19 41 340 306 312